TimeEDT,TemperatureF,Dew PointF,Humidity,Sea Level PressureIn,VisibilityMPH,Wind Direction,Wind SpeedMPH,Gust SpeedMPH,PrecipitationIn,Events,Conditions,WindDirDegrees,DateUTC
10:39 AM,60.8,59.0,94,29.64,5.0,ESE,6.9,-,N/A,Rain,Light Rain,110,2012-10-30 14:39:00
10:54 AM,60.1,59.0,96,29.65,6.0,East,8.1,-,N/A,Rain,Light Rain,100,2012-10-30 14:54:00
11:54 AM,61.0,60.1,97,29.64,6.0,ESE,8.1,-,0.01,Rain,Light Rain,110,2012-10-30 15:54:00
12:30 PM,62.6,60.8,94,29.64,10.0,SE,5.8,-,0.01,,Overcast,130,2012-10-30 16:30:00
12:54 PM,64.0,61.0,90,29.64,10.0,ESE,6.9,-,0.01,,Overcast,110,2012-10-30 16:54:00
1:54 PM,62.1,60.1,93,29.65,9.0,ESE,8.1,-,0.00,Rain,Light Rain,120,2012-10-30 17:54:00
2:29 PM,62.6,60.8,94,29.64,5.0,East,6.9,-,0.02,Rain,Light Rain,100,2012-10-30 18:29:00
2:43 PM,62.6,60.8,94,29.64,5.0,East,5.8,-,0.03,Rain,Light Rain,100,2012-10-30 18:43:00
2:54 PM,62.1,60.1,93,29.65,7.0,ESE,6.9,-,0.03,Rain,Light Rain,110,2012-10-30 18:54:00
3:15 PM,62.6,60.8,94,29.64,10.0,ESE,9.2,-,0.00,,Overcast,110,2012-10-30 19:15:00
3:36 PM,62.6,60.8,94,29.64,10.0,ESE,8.1,-,0.00,,Overcast,110,2012-10-30 19:36:00
3:41 PM,62.6,60.8,94,29.63,10.0,East,6.9,-,0.00,,Overcast,100,2012-10-30 19:41:00
3:54 PM,62.1,60.1,93,29.64,10.0,East,5.8,-,0.00,,Overcast,100,2012-10-30 19:54:00
4:11 PM,62.6,60.8,94,29.63,10.0,ESE,3.5,-,N/A,,Overcast,110,2012-10-30 20:11:00
4:54 PM,61.0,59.0,93,29.63,9.0,East,5.8,-,0.00,Rain,Light Rain,100,2012-10-30 20:54:00
5:54 PM,60.1,59.0,96,29.62,8.0,East,3.5,-,0.02,Rain,Light Rain,80,2012-10-30 21:54:00
6:54 PM,60.1,60.1,100,29.62,5.0,East,5.8,-,0.01,Rain,Light Rain,100,2012-10-30 22:54:00
7:54 PM,60.1,60.1,100,29.61,6.0,East,6.9,-,0.02,,Overcast,90,2012-10-30 23:54:00
8:06 PM,60.8,60.8,100,29.60,4.0,East,8.1,-,0.00,Rain,Light Rain,100,2012-10-31 00:06:00
8:26 PM,60.8,60.8,100,29.61,10.0,East,11.5,-,0.00,,Overcast,100,2012-10-31 00:26:00
8:54 PM,60.1,59.0,96,29.61,10.0,East,9.2,-,0.01,,Overcast,100,2012-10-31 00:54:00
9:38 PM,60.8,59.0,94,29.61,8.0,ESE,6.9,-,0.01,Thunderstorm,Overcast,120,2012-10-31 01:38:00
9:54 PM,60.1,59.0,96,29.60,9.0,East,4.6,-,0.05,,Overcast,100,2012-10-31 01:54:00
10:21 PM,59.0,59.0,100,29.60,7.0,SE,5.8,-,0.05,Rain-Thunderstorm,Light Rain,130,2012-10-31 02:21:00
10:32 PM,60.8,59.0,94,29.60,10.0,SSE,5.8,-,0.05,Thunderstorm,Overcast,150,2012-10-31 02:32:00
10:54 PM,60.1,59.0,96,29.60,6.0,ESE,5.8,-,0.08,Rain,Light Rain,110,2012-10-31 02:54:00
11:14 PM,59.0,59.0,100,29.59,3.0,SSE,3.5,-,0.00,,Overcast,150,2012-10-31 03:14:00
11:21 PM,59.0,59.0,100,29.58,2.0,ESE,3.5,-,0.00,Rain,Light Rain,120,2012-10-31 03:21:00
11:32 PM,59.0,59.0,100,29.58,1.8,Calm,Calm,-,0.00,Rain,Light Rain,0,2012-10-31 03:32:00
11:54 PM,59.0,59.0,100,29.58,1.5,ESE,4.6,-,0.00,,Overcast,120,2012-10-31 03:54:00